Simultaneous Nadir Overpasses (SNOs) Predictions

Prediction of SNOs between GOES-16 and METOP-A Satellite Orbit:

Table of predicted SNOs for the next 14.0 days since TLE Epoch: 9/4/2021
Index Date Time (GOES-16) GOES-16 Lat,Lon METOP-A Lat,Lon Distance(km) Time Diff (sec)
1 09/04/2021 12:54:53 0.00, -75.21 -0.18, -74.33 100.49 80
2 09/06/2021 01:16:32 -0.02, -75.19 -0.86, -78.96 429.38 80
3 09/07/2021 00:53:13 -0.01, -75.19 0.29, -73.99 137.90 80
4 09/08/2021 13:14:43 0.02, -75.23 0.74, -78.59 382.34 80
5 09/09/2021 12:51:23 0.01, -75.23 -0.35, -73.61 185.22 80
6 09/11/2021 01:13:02 -0.03, -75.22 -0.68, -78.24 343.67 80
7 09/12/2021 00:49:41 -0.02, -75.23 0.41, -73.26 224.07 80
8 09/13/2021 13:11:12 0.04, -75.26 0.62, -77.86 295.61 80
9 09/14/2021 12:47:51 0.03, -75.27 -0.47, -72.88 272.21 80
10 09/16/2021 01:09:31 -0.04, -75.26 -0.55, -77.51 256.21 80
11 09/17/2021 00:46:10 -0.03, -75.28 0.54, -72.53 311.97 80
